Location: California Mobile Home Park
(33.7461°N, 117.9092°W)
Time: 06:52:15
(UTC+00:00)

H-2A R/B - Pass Details

Date: 29 June 2022
Orbit: 491 x 536 km, 97.3° (Epoch: 01 April)

Event Time Altitude Azimuth Distance (km) Brightness Sun altitude
Rises 12:07:59 0° 20° (NNE) 2,600 7.3 -7.2°
Reaches altitude 10° 12:10:09 10° 28° (NNE) 1,718 6.5 -6.8°
Maximum altitude 12:13:39 39° 99° (E) 772 4.1 -6.2°
Drops below altitude 10° 12:17:09 10° 169° (S) 1,727 5.1 -5.6°
Sets 12:19:20 0° 177° (S) 2,616 6.0 -5.2°
